Location: Unspecified
(46.0725°N, 13.7344°E)
Time: 10:41:57
(UTC+02:00)

Cosmos 2058 - Pass Details

Date: 21 June 2024
Orbit: 545 x 564 km, 82.5° (Epoch: 17 July)

Event Time Altitude Azimuth Distance (km) Brightness Sun altitude
Exits shadow 04:34:44 - 233° (SW) 2,049 5.0 -6.1°
Reaches altitude 10° 04:35:23 10° 239° (WSW) 1,845 4.9 -6.0°
Maximum altitude 04:38:31 21° 289° (WNW) 1,279 4.4 -5.6°
Drops below altitude 10° 04:41:42 10° 340° (NNW) 1,866 5.8 -5.2°
Sets 04:44:20 0° 357° (N) 2,770 7.0 -4.8°
